GW0490 Weather Reports


Display with metric or nautical units.
time (UTC)temp
F
wind
direction
speed
MPH
gust
MPH
rain 1hr
in
rain 24hr
in
rain mn
in
humidity
%
barometer
mb
20260504205450 68 0 2.0 2.0 0.00 0.00 0.00 42 1001.2
20260504204949 69 235 2.0 5.0 0.00 0.00 0.00 40 1001.3
20260504204447 70 261 3.0 6.0 0.00 0.00 0.00 40 1001.4
20260504203945 69 94 2.0 2.0 0.00 0.00 0.00 41 1001.1
20260504203443 69 39 1.0 8.0 0.00 0.00 0.00 42 1001.3
20260504202939 69 279 4.0 6.0 0.00 0.00 0.00 40 1001.2
20260504202435 68 31 2.0 7.0 0.00 0.00 0.00 41 1001.3
20260504201932 67 29 3.0 9.0 0.00 0.00 0.00 43 1001.4
20260504201430 67 12 3.0 5.0 0.00 0.00 0.00 44 1001.3
20260504200927 67 279 4.0 6.0 0.00 0.00 0.00 42 1001.4
20260504200424 67 320 3.0 7.0 0.00 0.00 0.00 44 1001.4
20260504195920 67 311 4.0 6.0 0.00 0.00 0.00 43 1001.3
20260504195416 66 355 0.0 10.0 0.00 0.00 0.00 44 1001.3
20260504194913 67 13 1.0 5.0 0.00 0.00 0.00 44 1001.5
20260504194409 68 83 3.0 7.0 0.00 0.00 0.00 44 1001.5
20260504193905 68 310 2.0 5.0 0.00 0.00 0.00 43 1001.6
20260504193403 67 38 1.0 7.0 0.00 0.00 0.00 45 1001.6
20260504192901 67 112 5.0 10.0 0.00 0.00 0.00 43 1001.7
20260504192358 67 52 2.0 5.0 0.00 0.00 0.00 45 1002.0
20260504191856 66 15 0.0 10.0 0.00 0.00 0.00 46 1001.9
20260504191354 66 21 1.0 7.0 0.00 0.00 0.00 46 1002.0
20260504190849 65 19 1.0 2.0 0.00 0.00 0.00 47 1001.9
20260504190345 65 8 2.0 8.0 0.00 0.00 0.00 47 1002.4
20260504185842 65 11 2.0 6.0 0.00 0.00 0.00 47 1002.1
20260504185339 65 17 4.0 5.0 0.00 0.00 0.00 46 1002.1
20260504184835 65 237 3.0 6.0 0.00 0.00 0.00 47 1002.1
20260504184331 64 161 3.0 5.0 0.00 0.00 0.00 47 1002.2
20260504183827 64 341 3.0 6.0 0.00 0.00 0.00 49 1002.2
20260504183325 65 260 4.0 8.0 0.00 0.00 0.00 48 1002.2
20260504182822 64 206 6.0 8.0 0.00 0.00 0.00 50 1002.3
20260504182320 63 309 2.0 3.0 0.00 0.00 0.00 51 1002.4
20260504181816 62 17 1.0 2.0 0.00 0.00 0.00 53 1002.5
20260504181314 62 27 2.0 2.0 0.00 0.00 0.00 53 1002.6
20260504180813 62 15 3.0 5.0 0.00 0.00 0.00 53 1002.4
20260504180311 62 17 3.0 5.0 0.00 0.00 0.00 55 1002.8
20260504175809 60 26 2.0 5.0 0.00 0.00 0.00 57 1002.7
20260504175305 59 45 1.0 2.0 0.00 0.00 0.00 59 1002.6
20260504174804 59 26 1.0 3.0 0.00 0.00 0.00 58 1002.9
20260504174301 59 9 2.0 2.0 0.00 0.00 0.00 58 1002.9
20260504173757 59 35 1.0 2.0 0.00 0.00 0.00 58 1002.8
20260504173254 59 39 2.0 6.0 0.00 0.00 0.00 58 1002.9
20260504172751 59 354 4.0 6.0 0.00 0.00 0.00 58 1003.0
20260504172247 60 26 5.0 6.0 0.00 0.00 0.00 55 1002.8
20260504171743 60 19 2.0 3.0 0.00 0.00 0.00 55 1002.7
20260504171241 61 32 6.0 8.0 0.00 0.00 0.00 55 1002.8
20260504170738 60 17 7.0 10.0 0.00 0.00 0.00 55 1002.8
20260504170235 59 33 2.0 8.0 0.00 0.00 0.00 56 1002.8
20260504160153 62 0 3.0 7.0 0.00 0.00 0.00 48 1001.9
20260504151121 63 60 2.0 7.0 0.00 0.00 0.00 49 1002.1
20260504150618 63 293 3.0 5.0 0.00 0.00 0.00 50 1002.2
20260504150115 62 227 7.0 8.0 0.00 0.00 0.00 49 1002.0
20260504141044 58 21 1.0 7.0 0.00 0.00 0.00 59 1003.1
20260504140540 57 224 2.0 6.0 0.00 0.00 0.00 59 1003.3
20260504130504 55 37 1.0 11.0 0.00 0.00 0.00 66 1003.8
20260504110352 36 15 0.0 0.0 0.00 0.00 0.00 92 1004.6
20260504100309 33 51 0.0 0.0 0.00 0.00 0.00 94 1004.9
20260504081703 31 35 0.0 1.0 0.00 0.00 0.00 98 1005.1
20260504081159 30 4 1.0 1.0 0.00 0.00 0.00 99 1005.0
20260504080655 30 4 1.0 1.0 0.00 0.00 0.00 99 1004.8
20260504080152 30 4 0.0 0.0 0.00 0.00 0.00 99 1004.9
20260504070120 30 4 0.0 0.0 0.00 0.00 0.00 97 1004.6
20260504050508 30 4 0.0 1.0 0.00 0.00 0.00 95 1004.8
20260504050005 30 4 0.0 0.0 0.00 0.00 0.00 95 1004.7
20260504045501 31 4 0.0 1.0 0.00 0.00 0.00 95 1004.6
20260504044957 31 4 0.0 1.0 0.00 0.00 0.00 95 1004.6
20260504044455 31 3 1.0 1.0 0.00 0.00 0.00 95 1004.8
20260504043952 31 3 1.0 1.0 0.00 0.00 0.00 94 1004.6
20260504043449 32 4 0.0 0.0 0.00 0.00 0.00 94 1004.8
20260504042947 32 4 0.0 0.0 0.00 0.00 0.00 94 1004.7
20260504042443 32 4 0.0 0.0 0.00 0.00 0.00 93 1004.6
20260504041940 32 4 0.0 0.0 0.00 0.00 0.00 93 1004.6
20260504041436 32 4 0.0 0.0 0.00 0.00 0.00 93 1004.6
20260504040932 32 4 0.0 0.0 0.00 0.00 0.00 92 1004.5
20260504040430 32 4 0.0 0.0 0.00 0.00 0.00 92 1004.5
20260504035925 32 4 0.0 0.0 0.00 0.03 0.03 92 1004.5
20260504035423 32 4 0.0 0.0 0.00 0.03 0.03 92 1004.4
20260504034920 33 4 0.0 0.0 0.00 0.03 0.03 91 1004.6
20260504034417 33 4 0.0 0.0 0.00 0.03 0.03 91 1004.3
20260504033914 33 4 0.0 0.0 0.00 0.03 0.03 91 1004.1
20260504033411 33 4 0.0 0.0 0.00 0.03 0.03 90 1004.4
20260504032903 33 4 0.0 1.0 0.00 0.03 0.03 90 1004.6
20260504032400 33 4 0.0 1.0 0.00 0.03 0.03 89 1004.3
20260504031856 33 4 0.0 0.0 0.00 0.03 0.03 89 1004.2
20260504031353 34 4 0.0 0.0 0.00 0.03 0.03 88 1004.3
20260504030850 34 4 0.0 1.0 0.00 0.03 0.03 87 1004.2
20260504030348 34 4 0.0 0.0 0.00 0.03 0.03 88 1004.2
20260504025843 35 4 0.0 0.0 0.00 0.03 0.03 87 1004.4
20260504025340 35 4 0.0 0.0 0.00 0.03 0.03 86 1004.3
20260504024837 35 4 0.0 0.0 0.00 0.03 0.03 86 1004.0
20260504024333 36 4 1.0 1.0 0.00 0.03 0.03 84 1004.3
20260504023831 36 4 0.0 0.0 0.00 0.03 0.03 85 1004.1
20260504023327 36 4 0.0 1.0 0.00 0.03 0.03 85 1004.5
20260504022822 37 4 0.0 1.0 0.00 0.03 0.03 84 1004.5
20260504022320 37 4 0.0 1.0 0.00 0.03 0.03 83 1004.4
20260504021816 37 4 0.0 0.0 0.00 0.03 0.03 82 1004.3
20260504021314 37 4 0.0 0.0 0.00 0.03 0.03 80 1004.1
20260504020811 37 4 0.0 1.0 0.00 0.03 0.03 80 1004.2
20260504020308 37 4 0.0 1.0 0.00 0.03 0.03 79 1004.2
20260504015803 37 4 0.0 1.0 0.00 0.03 0.03 79 1004.2
20260504015259 38 4 0.0 0.0 0.00 0.03 0.03 77 1004.3
20260504014755 38 4 0.0 1.0 0.00 0.03 0.03 74 1003.9
20260504014251 39 4 0.0 1.0 0.00 0.03 0.03 74 1004.2
20260504013749 39 4 0.0 0.0 0.00 0.03 0.03 73 1004.4
20260504013247 40 4 0.0 1.0 0.00 0.03 0.03 73 1004.1
20260504012743 40 4 0.0 0.0 0.00 0.03 0.03 73 1004.3
20260504012241 41 4 0.0 0.0 0.00 0.03 0.03 70 1004.3
20260504011738 41 4 0.0 0.0 0.00 0.03 0.03 67 1004.1
20260504011235 42 4 0.0 1.0 0.00 0.03 0.03 67 1004.0
20260504010731 42 4 1.0 1.0 0.00 0.03 0.03 65 1004.2
20260504010226 42 4 0.0 1.0 0.00 0.03 0.03 67 1004.0
20260504005723 42 4 0.0 1.0 0.00 0.03 0.03 66 1003.8
20260504005220 41 4 0.0 1.0 0.00 0.03 0.03 68 1003.8
20260504004718 41 4 1.0 2.0 0.00 0.03 0.03 68 1003.9
20260504004215 41 4 0.0 0.0 0.00 0.03 0.03 71 1003.6
20260504003712 41 4 0.0 1.0 0.00 0.03 0.03 73 1003.8
20260504003208 41 4 1.0 1.0 0.00 0.03 0.03 71 1003.8
20260504002705 42 4 1.0 2.0 0.00 0.03 0.03 67 1003.7
20260504002203 42 4 0.0 0.0 0.00 0.03 0.03 67 1003.6
20260504001701 43 4 0.0 1.0 0.00 0.03 0.03 65 1003.5
20260504001157 43 4 0.0 1.0 0.00 0.03 0.03 64 1003.6
20260504000654 44 4 0.0 1.0 0.00 0.03 0.03 63 1003.5
20260504000151 45 33 1.0 1.0 0.00 0.03 0.03 62 1003.4
20260503235649 45 33 1.0 1.0 0.00 0.03 0.03 60 1003.4
20260503235145 45 33 0.0 1.0 0.00 0.03 0.03 59 1003.3
20260503234644 45 22 0.0 1.0 0.00 0.03 0.03 59 1003.1
20260503234142 46 345 2.0 3.0 0.00 0.03 0.03 59 1003.2
20260503233638 46 60 1.0 1.0 0.00 0.03 0.03 58 1003.1
20260503233134 46 65 2.0 3.0 0.00 0.03 0.03 58 1003.2
20260503232631 47 8 2.0 5.0 0.00 0.03 0.03 56 1003.0
20260503232128 47 45 1.0 2.0 0.00 0.03 0.03 56 1003.2
20260503231626 47 46 1.0 3.0 0.00 0.03 0.03 55 1003.1
20260503231122 48 34 0.0 2.0 0.00 0.03 0.03 54 1003.1
20260503230620 48 36 1.0 6.0 0.00 0.03 0.03 55 1003.1
20260503230117 48 30 1.0 5.0 0.00 0.03 0.03 54 1003.0
20260503225614 48 5 1.0 3.0 0.00 0.03 0.03 53 1002.9
20260503225113 48 38 0.0 1.0 0.00 0.03 0.03 53 1002.9
20260503224611 48 15 1.0 2.0 0.00 0.03 0.03 53 1002.9
20260503224109 48 351 2.0 3.0 0.00 0.03 0.03 52 1002.8
20260503223607 48 53 4.0 6.0 0.00 0.03 0.03 52 1002.8
20260503223102 48 19 2.0 9.0 0.00 0.03 0.03 51 1002.8
20260503222600 48 25 4.0 8.0 0.00 0.03 0.03 51 1002.6
20260503222058 48 23 3.0 9.0 0.00 0.03 0.03 50 1003.1
20260503221556 48 19 2.0 3.0 0.00 0.03 0.03 50 1002.8
20260503221053 48 72 4.0 7.0 0.00 0.03 0.03 50 1002.9
20260503220549 49 28 0.0 3.0 0.00 0.03 0.03 49 1002.6
20260503220047 49 294 2.0 3.0 0.00 0.03 0.03 49 1002.5
20260503215543 49 62 2.0 3.0 0.00 0.03 0.03 52 1002.6
20260503215040 49 335 3.0 7.0 0.00 0.03 0.03 50 1002.6
20260503214539 48 38 1.0 7.0 0.00 0.03 0.03 51 1002.6
20260503214035 49 2 5.0 9.0 0.00 0.03 0.03 50 1002.4
20260503213533 49 66 7.0 11.0 0.00 0.03 0.03 52 1002.4
20260503213030 49 14 4.0 7.0 0.00 0.03 0.03 53 1002.7
20260503212527 49 350 1.0 7.0 0.00 0.03 0.03 52 1002.6
20260503212025 49 359 6.0 8.0 0.00 0.03 0.03 52 1002.5
20260503211521 50 124 2.0 8.0 0.00 0.03 0.03 52 1002.3
20260503211017 50 14 2.0 8.0 0.00 0.03 0.03 49 1002.4
20260503210514 51 41 2.0 7.0 0.00 0.03 0.03 47 1002.2
20260503210010 52 22 6.0 10.0 0.00 0.03 0.03 46 1002.0